DW8622 Weather Reports


Display with metric or nautical units.
time (UTC)temp
F
wind
direction
speed
MPH
gust
MPH
rain 1hr
in
rain 24hr
in
rain mn
in
humidity
%
barometer
mb
20260508081007 55 44 3.0 8.0 0.00 0.00 0.00 84 1018.0
20260508080506 55 41 4.0 8.0 0.00 0.00 0.00 84 1018.0
20260508080006 55 38 4.0 7.0 0.00 0.00 0.00 85 1017.9
20260508075506 55 37 3.0 7.0 0.00 0.00 0.00 86 1017.9
20260508075007 55 37 4.0 8.0 0.00 0.00 0.00 86 1018.0
20260508074506 54 37 4.0 8.0 0.00 0.00 0.00 86 1017.9
20260508074006 54 40 4.0 7.0 0.00 0.00 0.00 86 1017.9
20260508073506 54 37 4.0 7.0 0.00 0.00 0.00 86 1017.9
20260508073005 54 36 4.0 7.0 0.00 0.00 0.00 87 1017.9
20260508072506 54 36 4.0 8.0 0.00 0.00 0.00 87 1017.9
20260508072006 53 34 3.0 8.0 0.00 0.00 0.00 87 1018.0
20260508071506 53 38 3.0 7.0 0.00 0.00 0.00 87 1017.9
20260508071006 53 43 4.0 7.0 0.00 0.00 0.00 87 1017.9
20260508070506 53 44 4.0 7.0 0.00 0.00 0.00 88 1017.8
20260508070007 53 42 3.0 7.0 0.00 0.00 0.00 88 1017.8
20260508065506 53 39 3.0 7.0 0.00 0.00 0.00 88 1017.6
20260508065007 53 34 3.0 6.0 0.00 0.00 0.00 88 1017.7
20260508064006 52 33 3.0 6.0 0.00 0.00 0.00 89 1017.6
20260508063505 52 34 3.0 5.0 0.00 0.00 0.00 89 1017.6
20260508063006 52 34 3.0 5.0 0.00 0.00 0.00 89 1017.5
20260508062506 52 38 2.0 4.0 0.00 0.00 0.00 89 1017.5
20260508062006 51 39 2.0 4.0 0.00 0.00 0.00 89 1017.5
20260508061506 51 38 2.0 4.0 0.00 0.00 0.00 89 1017.4
20260508061021 51 36 2.0 4.0 0.00 0.00 0.00 89 1017.4
20260508060506 51 34 2.0 4.0 0.00 0.00 0.00 89 1017.5
20260508060006 51 37 2.0 4.0 0.00 0.00 0.00 89 1017.5
20260508055507 51 44 2.0 4.0 0.00 0.00 0.00 89 1017.4
20260508054506 51 60 1.0 4.0 0.00 0.00 0.00 89 1017.4
20260508054006 51 57 2.0 4.0 0.00 0.00 0.00 89 1017.4
20260508053506 51 51 2.0 4.0 0.00 0.00 0.00 89 1017.3
20260508053006 51 51 2.0 4.0 0.00 0.00 0.00 89 1017.3
20260508052506 51 51 1.0 4.0 0.00 0.00 0.00 90 1017.3
20260508052006 51 50 1.0 4.0 0.00 0.00 0.00 90 1017.2
20260508051507 51 50 2.0 4.0 0.00 0.00 0.00 90 1017.2
20260508051005 50 51 2.0 4.0 0.00 0.00 0.00 90 1017.1
20260508050507 50 50 2.0 4.0 0.00 0.00 0.00 90 1017.1
20260508050007 50 48 2.0 4.0 0.00 0.00 0.00 90 1017.1
20260508045006 50 50 3.0 6.0 0.00 0.00 0.00 90 1017.0
20260508043006 50 0 0.0 0.0 0.00 0.00 0.00 91 1016.9
20260508042506 50 0 0.0 0.0 0.00 0.00 0.00 91 1017.0
20260508042005 50 0 0.0 0.0 0.00 0.00 0.00 91 1017.0
20260508041506 50 0 0.0 0.0 0.00 0.00 0.00 91 1016.9
20260508041006 50 0 0.0 0.0 0.00 0.00 0.00 91 1016.9
20260508040506 50 49 0.0 3.0 0.00 0.00 0.00 91 1016.8
20260508040006 50 49 0.0 3.0 0.00 0.00 0.00 91 1016.8
20260508035506 50 40 0.0 2.0 0.00 0.00 0.00 91 1016.8
20260508035006 50 36 1.0 3.0 0.00 0.00 0.00 91 1016.8
20260508034506 50 35 2.0 4.0 0.00 0.00 0.00 90 1016.8
20260508033005 50 35 1.0 4.0 0.00 0.00 0.00 90 1016.7
20260508032506 50 37 2.0 4.0 0.00 0.00 0.00 90 1016.7
20260508031506 50 40 2.0 6.0 0.00 0.00 0.00 90 1016.7
20260508031006 50 38 2.0 6.0 0.00 0.00 0.00 90 1016.8
20260508030003 50 36 2.0 5.0 0.00 0.00 0.00 90 1016.7
20260508025506 50 37 1.0 4.0 0.00 0.00 0.00 90 1016.7
20260508025006 50 0 0.0 0.0 0.00 0.00 0.00 90 1016.7
20260508024507 51 0 0.0 0.0 0.00 0.00 0.00 90 1016.6
20260508024005 51 50 0.0 2.0 0.00 0.00 0.00 90 1016.7
20260508023506 51 38 0.0 3.0 0.00 0.00 0.00 90 1016.6
20260508023006 51 37 0.0 3.0 0.00 0.00 0.00 90 1016.6
20260508022006 51 40 1.0 3.0 0.00 0.00 0.00 90 1016.6
20260508021505 51 39 1.0 3.0 0.00 0.00 0.00 90 1016.7
20260508020006 51 34 1.0 3.0 0.00 0.00 0.00 89 1016.6
20260508015507 51 33 2.0 3.0 0.00 0.00 0.00 89 1016.5
20260508015006 51 31 3.0 4.0 0.00 0.00 0.00 89 1016.5
20260508014506 51 30 3.0 4.0 0.00 0.00 0.00 89 1016.6
20260508014006 51 30 3.0 4.0 0.00 0.00 0.00 89 1016.5
20260508013006 52 27 3.0 5.0 0.00 0.00 0.00 89 1016.5
20260508012506 52 25 3.0 4.0 0.00 0.00 0.00 89 1016.6
20260508012007 52 26 2.0 3.0 0.00 0.00 0.00 89 1016.6
20260508011505 52 25 1.0 3.0 0.00 0.00 0.00 89 1016.6
20260508011006 52 0 0.0 0.0 0.00 0.00 0.00 88 1016.6
20260508010506 52 0 0.0 0.0 0.00 0.00 0.00 88 1016.6
20260508010006 52 0 0.0 0.0 0.00 0.00 0.00 88 1016.6
20260508005505 52 0 0.0 0.0 0.00 0.00 0.00 88 1016.7
20260508005006 52 0 0.0 0.0 0.00 0.00 0.00 88 1016.7
20260508004506 52 0 0.0 0.0 0.00 0.00 0.00 88 1016.7
20260508004005 52 0 0.0 0.0 0.00 0.00 0.00 88 1016.7
20260508003506 52 0 0.0 0.0 0.00 0.00 0.00 88 1016.8
20260508003006 52 0 0.0 0.0 0.00 0.00 0.00 88 1016.7
20260508002506 52 0 0.0 0.0 0.00 0.00 0.00 87 1016.7
20260508002006 52 0 0.0 0.0 0.00 0.00 0.00 87 1016.7
20260508001505 52 0 0.0 0.0 0.00 0.00 0.00 87 1016.7
20260508001006 52 0 0.0 0.0 0.00 0.00 0.00 87 1016.7
20260508000506 52 0 0.0 0.0 0.00 0.00 0.00 87 1016.7
20260508000006 52 0 0.0 0.0 0.00 0.00 0.00 87 1016.8
20260507235505 52 0 0.0 0.0 0.00 0.00 0.00 86 1016.8
20260507235007 53 0 0.0 0.0 0.00 0.00 0.00 86 1016.8
20260507234506 53 0 0.0 0.0 0.00 0.00 0.00 85 1016.8
20260507234005 53 0 0.0 0.0 0.00 0.00 0.00 85 1016.8
20260507233506 53 0 0.0 0.0 0.00 0.00 0.00 85 1016.8
20260507233006 53 0 0.0 0.0 0.00 0.00 0.00 84 1016.9
20260507232506 53 0 0.0 0.0 0.00 0.00 0.00 84 1016.8
20260507232006 53 0 0.0 0.0 0.00 0.00 0.00 84 1016.8
20260507231506 53 0 0.0 0.0 0.00 0.00 0.00 83 1016.8
20260507231005 53 0 0.0 0.0 0.00 0.00 0.00 83 1016.8
20260507230505 53 0 0.0 0.0 0.00 0.00 0.00 82 1016.8
20260507230006 53 0 0.0 0.0 0.00 0.00 0.00 81 1016.8
20260507225506 54 0 0.0 0.0 0.00 0.00 0.00 81 1016.8
20260507224507 54 0 0.0 0.0 0.00 0.00 0.00 81 1016.8
20260507224006 54 0 0.0 0.0 0.00 0.00 0.00 81 1016.9
20260507223506 54 0 0.0 0.0 0.00 0.00 0.00 80 1016.9
20260507223005 54 0 0.0 0.0 0.00 0.00 0.00 79 1016.9
20260507222507 54 0 0.0 0.0 0.00 0.00 0.00 79 1016.8
20260507222006 54 0 0.0 0.0 0.00 0.00 0.00 78 1016.9
20260507221506 55 0 0.0 0.0 0.00 0.00 0.00 78 1016.9
20260507221006 54 0 0.0 0.0 0.00 0.00 0.00 78 1016.8
20260507220506 54 0 0.0 0.0 0.00 0.00 0.00 77 1016.8
20260507220006 54 0 0.0 0.0 0.00 0.00 0.00 78 1016.8
20260507215506 54 0 0.0 0.0 0.00 0.00 0.00 78 1016.8
20260507215005 54 0 0.0 0.0 0.00 0.00 0.00 79 1016.7
20260507214506 54 0 0.0 0.0 0.00 0.00 0.00 79 1016.7
20260507214006 54 0 0.0 0.0 0.00 0.00 0.00 80 1016.7
20260507213506 54 0 0.0 0.0 0.00 0.00 0.00 80 1016.7
20260507213005 54 0 0.0 0.0 0.00 0.00 0.00 80 1016.7
20260507212006 54 0 0.0 0.0 0.00 0.00 0.00 81 1016.7
20260507211506 54 0 0.0 0.0 0.00 0.00 0.00 81 1016.7
20260507211006 54 0 0.0 0.0 0.00 0.00 0.00 81 1016.7
20260507210508 54 0 0.0 0.0 0.00 0.00 0.00 82 1016.6
20260507210006 54 0 0.0 0.0 0.00 0.00 0.00 82 1016.7
20260507205506 54 0 0.0 0.0 0.00 0.00 0.00 82 1016.7
20260507205006 54 0 0.0 0.0 0.00 0.00 0.00 82 1016.6
20260507204006 54 0 0.0 0.0 0.00 0.00 0.00 82 1016.6
20260507203506 53 0 0.0 0.0 0.00 0.00 0.00 81 1016.5
20260507203007 54 0 0.0 0.0 0.00 0.00 0.00 81 1016.5
20260507202506 53 0 0.0 0.0 0.00 0.00 0.00 81 1016.5
20260507201506 53 0 0.0 0.0 0.00 0.00 0.00 80 1016.5
20260507201021 53 0 0.0 0.0 0.00 0.00 0.00 80 1016.5
20260507200506 53 0 0.0 0.0 0.00 0.00 0.00 80 1016.4
20260507200006 53 0 0.0 0.0 0.00 0.00 0.00 80 1016.3
20260507195506 53 0 0.0 0.0 0.00 0.00 0.00 80 1016.2
20260507195006 53 0 0.0 0.0 0.00 0.00 0.00 80 1016.2
20260507194506 53 0 0.0 0.0 0.00 0.00 0.00 81 1016.2
20260507194006 53 0 0.0 0.0 0.00 0.00 0.00 81 1016.2
20260507193506 54 0 0.0 0.0 0.00 0.00 0.00 81 1016.1
20260507193007 54 0 0.0 0.0 0.00 0.00 0.00 81 1016.0
20260507192506 54 0 0.0 0.0 0.00 0.00 0.00 81 1016.0
20260507192006 54 0 0.0 0.0 0.00 0.00 0.00 81 1016.0
20260507191506 55 0 0.0 0.0 0.00 0.00 0.00 80 1016.0
20260507191006 55 0 0.0 0.0 0.00 0.00 0.00 80 1015.9
20260507190006 56 0 0.0 0.0 0.00 0.00 0.00 79 1016.0
20260507185506 56 0 0.0 0.0 0.00 0.00 0.00 78 1016.0
20260507185006 56 0 0.0 0.0 0.00 0.00 0.00 77 1016.0
20260507184006 57 0 0.0 0.0 0.00 0.00 0.00 76 1016.1
20260507183506 57 0 0.0 0.0 0.00 0.00 0.00 75 1016.0
20260507182506 58 0 0.0 0.0 0.00 0.00 0.00 74 1016.0
20260507182007 58 0 0.0 0.0 0.00 0.00 0.00 72 1015.9
20260507181506 58 0 0.0 0.0 0.00 0.00 0.00 72 1016.0
20260507181006 59 33 0.0 4.0 0.00 0.00 0.00 71 1016.0
20260507180506 59 29 1.0 4.0 0.00 0.00 0.00 70 1015.9
20260507175006 59 36 0.0 3.0 0.00 0.00 0.00 70 1015.8
20260507174506 60 0 0.0 0.0 0.00 0.00 0.00 69 1015.7
20260507174006 60 0 0.0 0.0 0.00 0.00 0.00 68 1015.7
20260507173506 60 0 0.0 0.0 0.00 0.00 0.00 67 1015.7
20260507173006 60 0 0.0 0.0 0.00 0.00 0.00 66 1015.8
20260507172506 60 0 0.0 0.0 0.00 0.00 0.00 66 1015.7
20260507172006 60 0 0.0 0.0 0.00 0.00 0.00 67 1015.8
20260507171506 60 0 0.0 0.0 0.00 0.00 0.00 65 1015.8
20260507171006 60 0 0.0 0.0 0.00 0.00 0.00 63 1015.8
20260507170006 61 45 0.0 4.0 0.00 0.00 0.00 62 1015.7
20260507165507 61 45 1.0 4.0 0.00 0.00 0.00 61 1015.7
20260507165006 61 44 2.0 6.0 0.00 0.00 0.00 60 1015.7
20260507164506 61 43 2.0 6.0 0.00 0.00 0.00 59 1015.6
20260507164007 61 45 2.0 6.0 0.00 0.00 0.00 60 1015.6
20260507163505 62 47 1.0 6.0 0.00 0.00 0.00 59 1015.6
20260507163005 62 47 0.0 2.0 0.00 0.00 0.00 56 1015.7
20260507162505 62 0 0.0 0.0 0.00 0.00 0.00 54 1015.7
20260507162006 62 0 0.0 0.0 0.00 0.00 0.00 52 1015.6
20260507161506 62 26 0.0 2.0 0.00 0.00 0.00 53 1015.6
20260507161006 62 26 0.0 2.0 0.00 0.00 0.00 54 1015.6
20260507160006 62 36 0.0 3.0 0.00 0.00 0.00 53 1015.6
20260507155007 62 30 1.0 4.0 0.00 0.00 0.00 51 1015.5
20260507154506 62 0 0.0 0.0 0.00 0.00 0.00 48 1015.5
20260507154008 62 22 0.0 3.0 0.00 0.00 0.00 47 1015.6
20260507153506 62 21 0.0 3.0 0.00 0.00 0.00 49 1015.6
20260507153022 63 22 0.0 3.0 0.00 0.00 0.00 49 1015.5
20260507152506 63 26 1.0 3.0 0.00 0.00 0.00 48 1015.5
20260507152006 63 26 0.0 3.0 0.00 0.00 0.00 50 1015.4
20260507151506 63 18 0.0 3.0 0.00 0.00 0.00 47 1015.4
20260507151006 63 22 0.0 2.0 0.00 0.00 0.00 46 1015.5
20260507150506 63 58 0.0 4.0 0.00 0.00 0.00 50 1015.5
20260507150006 63 58 0.0 4.0 0.00 0.00 0.00 50 1015.4
20260507145507 63 18 0.0 2.0 0.00 0.00 0.00 50 1015.4
20260507145006 63 47 0.0 3.0 0.00 0.00 0.00 51 1015.4
20260507144506 63 49 0.0 3.0 0.00 0.00 0.00 51 1015.4
20260507144007 64 34 0.0 3.0 0.00 0.00 0.00 46 1015.4
20260507143506 65 28 0.0 3.0 0.00 0.00 0.00 41 1015.4
20260507143007 65 22 0.0 2.0 0.00 0.00 0.00 43 1015.4
20260507142506 64 21 0.0 1.0 0.00 0.00 0.00 44 1015.4
20260507142006 65 26 0.0 3.0 0.00 0.00 0.00 47 1015.5
20260507141506 66 24 1.0 5.0 0.00 0.00 0.00 44 1015.4
20260507140507 66 332 1.0 6.0 0.00 0.00 0.00 42 1015.5
20260507140007 64 328 1.0 7.0 0.00 0.00 0.00 47 1015.6
20260507135506 64 318 1.0 8.0 0.00 0.00 0.00 43 1015.6
20260507135006 64 313 2.0 10.0 0.00 0.00 0.00 43 1015.6
20260507134506 65 315 3.0 10.0 0.00 0.00 0.00 42 1015.6
20260507134006 66 318 1.0 9.0 0.00 0.00 0.00 43 1015.7
20260507133506 66 43 0.0 3.0 0.00 0.00 0.00 40 1015.7
20260507133007 66 28 1.0 7.0 0.00 0.00 0.00 40 1015.7
20260507132505 66 4 2.0 9.0 0.00 0.00 0.00 43 1015.7
20260507131505 65 344 2.0 8.0 0.00 0.00 0.00 43 1015.7
20260507131006 66 5 2.0 8.0 0.00 0.00 0.00 43 1015.6
20260507130506 66 356 1.0 5.0 0.00 0.00 0.00 42 1015.6
20260507130007 65 325 1.0 5.0 0.00 0.00 0.00 43 1015.6
20260507125506 66 326 1.0 9.0 0.00 0.00 0.00 42 1015.7
20260507125003 66 324 1.0 9.0 0.00 0.00 0.00 45 1015.6
20260507124506 65 333 1.0 6.0 0.00 0.00 0.00 44 1015.7
20260507124007 67 20 1.0 6.0 0.00 0.00 0.00 47 1015.7
20260507123506 66 15 3.0 8.0 0.00 0.00 0.00 48 1015.6
20260507123008 65 15 2.0 8.0 0.00 0.00 0.00 45 1015.7
20260507122506 65 337 2.0 8.0 0.00 0.00 0.00 48 1015.7
20260507122006 64 323 3.0 11.0 0.00 0.00 0.00 45 1015.7
20260507121506 65 322 2.0 11.0 0.00 0.00 0.00 46 1015.6
20260507121006 65 314 0.0 8.0 0.00 0.00 0.00 44 1015.6
20260507120506 66 342 1.0 8.0 0.00 0.00 0.00 48 1015.7
20260507120006 65 9 1.0 8.0 0.00 0.00 0.00 50 1015.8
20260507115507 65 334 2.0 9.0 0.00 0.00 0.00 49 1015.8
20260507114506 65 7 0.0 4.0 0.00 0.00 0.00 52 1015.8
20260507114005 64 14 0.0 3.0 0.00 0.00 0.00 49 1015.8
20260507113506 65 23 0.0 8.0 0.00 0.00 0.00 50 1015.7
20260507113006 65 20 1.0 8.0 0.00 0.00 0.00 49 1015.8
20260507112505 64 6 1.0 7.0 0.00 0.00 0.00 51 1015.8
20260507111507 65 351 2.0 8.0 0.00 0.00 0.00 53 1015.9
20260507111006 64 327 1.0 8.0 0.00 0.00 0.00 55 1015.9
20260507110008 65 341 1.0 7.0 0.00 0.00 0.00 52 1016.0
20260507105506 64 346 0.0 6.0 0.00 0.00 0.00 53 1016.0
20260507105006 64 22 1.0 8.0 0.00 0.00 0.00 54 1015.9
20260507104506 64 4 2.0 8.0 0.00 0.00 0.00 56 1016.0
20260507104006 63 328 1.0 7.0 0.00 0.00 0.00 57 1016.0
20260507103506 63 7 1.0 6.0 0.00 0.00 0.00 54 1016.0
20260507103006 62 13 1.0 8.0 0.00 0.00 0.00 55 1015.9
20260507102506 64 342 1.0 8.0 0.00 0.00 0.00 59 1016.0
20260507102007 63 333 1.0 5.0 0.00 0.00 0.00 57 1015.9
20260507101507 63 353 1.0 6.0 0.00 0.00 0.00 61 1015.9
20260507101006 62 7 1.0 8.0 0.00 0.00 0.00 57 1015.9
20260507100506 62 20 1.0 8.0 0.00 0.00 0.00 60 1015.9
20260507100007 61 8 1.0 8.0 0.00 0.00 0.00 61 1015.9
20260507095506 62 345 1.0 7.0 0.00 0.00 0.00 60 1015.9
20260507095007 62 336 1.0 7.0 0.00 0.00 0.00 61 1015.9
20260507094506 62 356 1.0 5.0 0.00 0.00 0.00 62 1015.8
20260507094006 62 7 0.0 5.0 0.00 0.00 0.00 62 1015.8
20260507093006 62 60 0.0 3.0 0.00 0.00 0.00 66 1015.8
20260507092507 61 0 0.0 0.0 0.00 0.00 0.00 68 1015.7
20260507092006 61 0 0.0 0.0 0.00 0.00 0.00 65 1015.7
20260507091006 61 1 0.0 5.0 0.00 0.00 0.00 68 1015.6
20260507090506 60 3 1.0 7.0 0.00 0.00 0.00 67 1015.7
20260507085506 59 319 2.0 8.0 0.00 0.00 0.00 68 1015.6
20260507084006 59 319 2.0 7.0 0.00 0.00 0.00 69 1015.6
20260507083006 58 337 1.0 6.0 0.00 0.00 0.00 69 1015.6
20260507082506 58 321 1.0 6.0 0.00 0.00 0.00 71 1015.6
20260507082006 57 326 1.0 9.0 0.00 0.00 0.00 69 1015.6
20260507081506 57 330 1.0 9.0 0.00 0.00 0.00 70 1015.7